Regional Weather Roundup
Issued by NWS

Home | Current Version | Previous Version | Text Only | Print | Product List | Glossary On
Versions: 1 2 3 4 5 6 7 8 9 10 11 12 13 14 15 16 17 18 19 20 21 22 23 24 25 26 27 28 29 30 31 32 33 34 35 36 37 38 39 40 41 42 43 44 45 46 47 48 49 50
000
ASUS44 KLIX 030910
RWRLA
LOUISIANA WEATHER ROUNDUP
NATIONAL WEATHER SERVICE NEW ORLEANS LA
300 AM CST TUE MAR 03 2015

NOTE: "FAIR" INDICATES FEW OR NO CLOUDS BELOW 12,000 FEET WITH NO
      SIGNIFICANT WEATHER AND/OR OBSTRUCTIONS TO VISIBILITY.
      SKY/WX - SKY CONDITION AND SIGNIFICANT WEATHER.
      TMP - AIR TEMPERATURE.    DP   - DEWPOINT TEMPERATURE.
      RH  - RELATIVE HUMIDITY.  PRES - PRESSURE.
      HX  - HEAT INDEX.         WCI  - WIND CHILL INDEX.

*  THESE STATIONS ARE NOT NWS OR FAA STATIONS AND ARE NOT UNDER
   NWS QUALITY CONTROL.

LAZ040-048-061>063-065-066-069-031000-
SOUTHEAST LOUISIANA

CITY           SKY/WX    TMP DP  RH WIND       PRES   REMARKS
N.O. AUDUBON     N/A     66  66 100 MISG        N/A
N.O. INTL ARPT FOG       66  64  93 S6        30.12F VSB 1/8
N.O. LAKEFRONT FOG       65  62  90 S6        30.13F VSB 1/4
SLIDELL        FOG       65  65 100 SE7       30.12F VSB 1/2
BATON ROUGE    FOG       56  55  97 W5        30.12F VSB 1/4
BOOTHVILLE     FOG       64  63  96 SE6       30.14F VSB 1/4
BELLE CHASSE   FOG       67  64  90 S6        30.12F VSB 1/4
BOGALUSA*      FOG       64  62  91 CALM      30.14F VSB 1/4
GALLIANO*      FOG       57  56  98 MISG      30.13F VSB<1/4
NEW ROADS*     FOG       50  49  98 CALM      30.13F VSB 1/4
GONZALES*      FOG       64  64 100 CALM      30.11F VSB<1/4
HAMMOND*       NOT AVBL
HOUMA*         HVY RAIN  64  64 100 CALM      30.12F VSB 1/4
PORT FOURCHON* FOG       66  66 100 E8        30.15F VSB 1

$$

LAZ041-044-053-054-031000-
SOUTHWEST LOUISIANA

CITY           SKY/WX    TMP DP  RH WIND       PRES   REMARKS
LAKE CHARLES   CLOUDY    53  52  96 E6        30.11F FOG
LAFAYETTE      FOG       54  53  97 NE5       30.12F VSB 1/4
PATTERSON      CLOUDY    66  64  94 CALM      30.11F VSB 1/4
SALT POINT       N/A     67  67 100 CALM      30.10F
NEW IBERIA     CLOUDY    57  56  96 NE6       30.12F FOG
CHENAULT AIRPK CLOUDY    52  52 100 E3        30.12F FOG

$$

LAZ027-028-031000-
CENTRAL LOUISIANA

CITY           SKY/WX    TMP DP  RH WIND       PRES   REMARKS
FORT POLK      CLOUDY    48  47  99 E3        30.11F FOG
ALEXANDRIA INT CLOUDY    45  45 100 CALM      30.11F FOG
ALEXANDRIA     CLOUDY    44  44 100 CALM      30.13F FOG

$$

LAZ001-002-031000-
NORTHWEST LOUISIANA

CITY           SKY/WX    TMP DP  RH WIND       PRES   REMARKS
SHREVEPORT     FOG       42  41  96 SE5       30.11F VSB 1
BARKSDALE AFB  CLOUDY    41  41 100 CALM      30.11F FOG
DTN SHREVEPORT CLOUDY    41  39  93 E3        30.12F FOG

$$

LAZ014-016-031000-
NORTHEAST LOUISIANA

CITY           SKY/WX    TMP DP  RH WIND       PRES   REMARKS
MONROE         FOG       41  41 100 CALM      30.15F VSB 3/4
TALLULAH       FOG       45  43  93 CALM      30.15F VSB 1

$$




USA.gov is the U.S. government's official web portal to all federal, state and local government web resources and services.